CW7309 Weather Reports


Display with metric or nautical units.
time (UTC)temp
F
wind
direction
speed
MPH
gust
MPH
rain 1hr
in
rain 24hr
in
rain mn
in
humidity
%
barometer
mb
20260506013701 52 41 0.0 0.0 0.06 0.79 0.81 90 1007.6
20260506012749 52 40 0.0 0.0 0.00 0.78 0.79 90 1007.7
20260506012334 52 40 0.0 0.0 0.00 0.78 0.79 90 1007.6
20260506011923 52 41 0.0 0.0 0.00 0.78 0.79 90 1007.6
20260506011522 51 40 0.0 0.0 0.00 0.78 0.77 90 1007.7
20260506011106 51 42 0.0 0.0 0.00 0.78 0.77 90 1007.6
20260506010148 51 40 0.0 0.0 0.04 0.78 0.77 90 1007.4
20260506005738 51 41 0.0 0.0 0.05 0.78 0.77 90 1007.2
20260506005332 51 42 0.0 1.0 0.05 0.78 0.77 90 1007.1
20260506004916 51 226 0.0 0.0 0.05 0.78 0.77 90 1007.3
20260506003957 51 235 0.0 0.0 0.09 0.77 0.77 89 1007.6
20260506001431 51 25 0.0 0.0 0.10 0.72 0.73 89 1007.7
20260506001022 51 25 0.0 3.0 0.13 0.72 0.72 89 1007.6
20260506000615 51 26 0.0 3.0 0.34 0.71 0.72 89 1007.7
20260506000205 51 144 0.0 3.0 0.28 0.68 0.70 89 1008.3
20260505235806 51 210 0.0 3.0 0.32 0.67 0.68 89 1008.0
20260505234316 52 9 0.0 0.0 0.13 0.62 0.62 89 1007.8
20260505233919 51 37 0.0 0.0 0.15 0.61 0.62 89 1007.8
20260505233515 52 36 0.0 2.0 0.13 0.59 0.61 89 1007.6
20260505233101 52 37 0.0 2.0 0.38 0.59 0.60 89 1007.9
20260505232700 52 98 0.0 2.0 0.21 0.58 0.57 89 1008.0
20260505232305 52 202 0.0 2.0 0.28 0.57 0.55 89 1008.2
20260505231855 52 227 0.0 2.0 0.13 0.56 0.52 89 1008.1
20260505231455 52 190 0.0 1.0 0.55 0.57 0.52 88 1007.9
20260505231101 52 182 0.0 1.0 0.16 0.55 0.48 88 1008.0
20260505230706 52 180 0.0 1.0 0.17 0.53 0.47 88 1007.8
20260505230307 52 190 0.0 1.0 0.24 0.53 0.46 88 1007.9
20260505224318 52 170 0.0 2.0 0.32 0.43 0.36 88 1007.7
20260505223903 52 185 0.0 2.0 0.06 0.40 0.34 88 1007.6
20260505223458 52 198 0.0 2.0 0.05 0.39 0.33 88 1007.4
20260505222538 52 149 0.0 2.0 0.05 0.39 0.32 88 1007.6
20260505221608 52 171 0.0 3.0 0.25 0.39 0.32 87 1007.4
20260505221157 52 184 0.0 3.0 0.18 0.36 0.31 87 1007.4
20260505220759 52 171 0.0 3.0 0.20 0.34 0.28 87 1007.4
20260505220348 52 196 0.0 3.0 0.10 0.33 0.27 86 1007.6
20260505215945 52 215 0.0 2.0 0.15 0.33 0.26 86 1007.5
20260505215019 52 172 0.0 4.0 0.13 0.30 0.24 86 1007.3
20260505214606 52 186 1.0 7.0 0.04 0.28 0.23 86 1007.3
20260505214204 52 186 1.0 7.0 0.05 0.28 0.21 86 1007.4
20260505213241 53 75 1.0 7.0 0.06 0.28 0.21 86 1007.6
20260505211753 53 49 1.0 4.0 0.25 0.26 0.20 86 1007.5
20260505211343 53 53 1.0 6.0 0.35 0.23 0.18 86 1007.4
20260505210933 54 29 2.0 6.0 0.05 0.23 0.17 86 1007.3
20260505210533 54 29 1.0 7.0 0.06 0.23 0.16 86 1007.3
20260505210126 54 35 2.0 7.0 0.09 0.23 0.16 86 1007.3
20260505205725 54 36 2.0 10.0 0.09 0.21 0.15 86 1007.1
20260505205326 55 33 1.0 10.0 0.08 0.21 0.15 86 1006.9
20260505204912 55 30 1.0 10.0 0.10 0.20 0.13 86 1006.9
20260505204504 55 40 2.0 10.0 0.15 0.20 0.13 85 1007.0
20260505204106 56 38 2.0 10.0 0.12 0.19 0.13 86 1007.0
20260505203706 56 32 2.0 8.0 0.15 0.19 0.12 85 1007.0
20260505202211 57 268 1.0 5.0 0.20 0.13 0.08 85 1007.0
20260505201248 58 211 2.0 5.0 0.23 0.11 0.05 84 1006.8
20260505200845 58 213 1.0 5.0 0.04 0.10 0.03 84 1006.9
20260505195354 58 246 2.0 8.0 0.00 0.09 0.02 79 1006.8
20260505193917 60 233 2.0 11.0 0.00 0.08 0.01 76 1006.8
20260505193516 60 200 2.0 11.0 0.00 0.08 0.01 74 1006.6
20260505193115 61 222 2.0 11.0 0.00 0.08 0.01 73 1006.5
20260505192712 61 250 3.0 11.0 0.00 0.08 0.01 71 1006.6
20260505192316 62 232 3.0 11.0 0.00 0.08 0.01 69 1006.5
20260505191907 62 313 2.0 11.0 0.00 0.08 0.01 70 1006.5
20260505191458 62 256 3.0 11.0 0.00 0.08 0.01 68 1006.5
20260505191058 62 0 3.0 9.0 0.00 0.08 0.01 68 1006.6
20260505190152 63 221 2.0 11.0 0.00 0.08 0.01 71 1006.4
20260505185230 62 263 2.0 11.0 0.00 0.08 0.01 72 1006.5
20260505184830 62 236 2.0 11.0 0.00 0.08 0.01 72 1006.5
20260505184425 62 306 2.0 9.0 0.00 0.08 0.01 72 1006.6
20260505184010 62 214 2.0 9.0 0.00 0.08 0.01 72 1006.6
20260505183613 62 205 2.0 9.0 0.00 0.08 0.01 73 1006.5
20260505183216 63 216 2.0 6.0 0.00 0.08 0.01 72 1006.5
20260505182816 63 163 2.0 6.0 0.00 0.08 0.01 72 1006.6
20260505181846 63 284 2.0 6.0 0.00 0.08 0.01 72 1006.5
20260505181442 63 213 2.0 6.0 0.00 0.08 0.01 72 1006.4
20260505181049 63 227 2.0 6.0 0.00 0.08 0.01 72 1006.4
20260505180646 63 227 2.0 6.0 0.00 0.08 0.01 72 1006.4
20260505180245 63 237 2.0 6.0 0.00 0.08 0.01 73 1006.6
20260505175829 63 299 2.0 6.0 0.00 0.08 0.01 72 1006.6
20260505175417 63 19 2.0 9.0 0.00 0.08 0.01 73 1006.5
20260505175003 63 17 2.0 9.0 0.00 0.08 0.01 72 1006.4
20260505174558 63 16 2.0 10.0 0.00 0.08 0.01 73 1006.3
20260505174154 62 18 3.0 10.0 0.00 0.08 0.01 73 1006.3
20260505173740 62 17 3.0 10.0 0.00 0.08 0.01 73 1006.3
20260505173342 62 17 3.0 12.0 0.00 0.08 0.01 73 1006.2
20260505172932 62 14 3.0 12.0 0.00 0.08 0.01 72 1006.1
20260505172003 63 179 4.0 12.0 0.00 0.08 0.01 71 1006.1
20260505171604 63 261 4.0 11.0 0.00 0.08 0.01 70 1006.0
20260505171209 63 269 4.0 11.0 0.00 0.08 0.01 69 1006.0
20260505170753 64 0 4.0 11.0 0.00 0.08 0.01 68 1005.8
20260505170350 65 0 4.0 11.0 0.00 0.08 0.01 67 1005.8
20260505165941 66 86 4.0 11.0 0.00 0.08 0.01 67 1005.7
20260505165534 66 244 5.0 15.0 0.00 0.08 0.01 67 1005.6
20260505165120 66 232 4.0 15.0 0.00 0.08 0.01 66 1005.6
20260505164718 66 152 4.0 15.0 0.00 0.08 0.01 66 1005.7
20260505164316 66 220 5.0 15.0 0.00 0.08 0.01 64 1005.6
20260505163904 67 230 5.0 15.0 0.00 0.08 0.01 63 1005.4
20260505163451 67 327 5.0 14.0 0.00 0.08 0.01 63 1005.4
20260505163052 67 25 5.0 14.0 0.00 0.08 0.01 62 1005.3
20260505162636 69 279 4.0 14.0 0.00 0.08 0.01 62 1005.4
20260505162233 69 232 4.0 14.0 0.00 0.08 0.01 61 1005.1
20260505161831 68 0 4.0 14.0 0.00 0.08 0.01 61 1005.3
20260505160353 66 227 5.0 15.0 0.00 0.08 0.01 64 1005.3
20260505152057 66 288 4.0 16.0 0.00 0.08 0.01 61 1004.9
20260505151659 66 180 5.0 16.0 0.00 0.08 0.01 61 1005.1
20260505151300 65 221 4.0 13.0 0.00 0.08 0.01 61 1005.3
20260505150344 67 230 3.0 11.0 0.00 0.08 0.01 60 1005.2
20260505130200 68 226 3.0 9.0 0.00 0.08 0.01 58 1003.6
20260505124851 68 207 2.0 6.0 0.00 0.08 0.01 58 1003.2
20260505124451 68 180 2.0 6.0 0.00 0.08 0.01 57 1003.2
20260505124047 68 257 1.0 10.0 0.00 0.08 0.01 58 1003.1
20260505123651 68 238 1.0 10.0 0.00 0.08 0.01 57 1003.1
20260505123257 68 207 2.0 10.0 0.00 0.08 0.01 58 1003.0
20260505122848 68 153 1.0 10.0 0.00 0.08 0.01 58 1002.9
20260505122453 68 106 1.0 10.0 0.00 0.08 0.01 58 1002.9
20260505122038 68 225 1.0 8.0 0.00 0.08 0.01 57 1002.8
20260505121638 68 186 2.0 10.0 0.00 0.08 0.01 57 1002.6
20260505121239 68 244 2.0 10.0 0.00 0.08 0.01 56 1002.8
20260505120842 68 231 2.0 10.0 0.00 0.08 0.01 57 1002.9
20260505115912 68 221 1.0 10.0 0.00 0.08 0.01 58 1003.0
20260505115505 67 232 0.0 4.0 0.00 0.08 0.01 61 1003.1
20260505115107 67 251 1.0 4.0 0.00 0.08 0.01 61 1003.1
20260505114700 67 193 1.0 4.0 0.00 0.08 0.01 60 1003.1
20260505114302 67 213 1.0 4.0 0.00 0.08 0.01 60 1003.1
20260505113335 67 219 1.0 4.0 0.00 0.08 0.01 60 1002.9
20260505112927 68 220 1.0 4.0 0.00 0.08 0.01 60 1002.8
20260505112519 68 144 1.0 4.0 0.00 0.08 0.01 60 1002.7
20260505112121 68 262 1.0 4.0 0.00 0.08 0.01 60 1002.7
20260505111720 68 199 1.0 5.0 0.00 0.08 0.01 60 1002.7
20260505111304 68 223 1.0 5.0 0.00 0.08 0.01 60 1002.5
20260505110345 67 219 2.0 9.0 0.00 0.08 0.01 59 1002.3
20260505102010 67 218 0.0 2.0 0.00 0.08 0.01 61 1001.7
20260505101607 67 50 0.0 6.0 0.00 0.08 0.01 60 1001.6
20260505100647 67 221 0.0 8.0 0.00 0.08 0.01 60 1001.5
20260505100243 67 190 0.0 8.0 0.00 0.08 0.01 60 1001.4
20260505095842 67 140 0.0 8.0 0.00 0.08 0.01 59 1001.2
20260505095437 68 182 0.0 8.0 0.00 0.08 0.01 58 1001.2
20260505095041 68 232 1.0 5.0 0.00 0.08 0.01 58 1001.0
20260505094644 68 242 1.0 5.0 0.00 0.08 0.01 58 1001.0
20260505094248 68 271 1.0 5.0 0.00 0.08 0.01 58 1001.0
20260505093835 68 217 0.0 3.0 0.00 0.08 0.01 57 1001.1
20260505093419 68 146 1.0 9.0 0.00 0.08 0.01 57 1001.0
20260505093008 68 196 1.0 9.0 0.00 0.08 0.01 56 1000.9
20260505092554 69 118 2.0 13.0 0.00 0.08 0.01 57 1000.8
20260505091619 69 186 3.0 13.0 0.00 0.08 0.01 56 1000.6
20260505091208 69 223 2.0 13.0 0.00 0.08 0.01 56 1000.7
20260505090754 69 233 2.0 13.0 0.00 0.08 0.01 56 1000.8
20260505090357 69 265 2.0 10.0 0.00 0.08 0.01 56 1000.8
20260505085957 69 253 2.0 10.0 0.00 0.08 0.01 56 1000.7
20260505085548 69 190 2.0 9.0 0.00 0.08 0.01 55 1000.8
20260505085154 69 178 2.0 12.0 0.00 0.08 0.01 56 1000.7
20260505084750 69 238 1.0 12.0 0.00 0.08 0.01 55 1000.8
20260505084356 70 244 2.0 12.0 0.00 0.08 0.01 55 1000.9
20260505083940 70 232 2.0 12.0 0.00 0.08 0.01 55 1000.8
20260505082512 69 173 2.0 7.0 0.00 0.08 0.01 56 1000.6
20260505082059 68 202 2.0 6.0 0.00 0.08 0.01 58 1000.6
20260505081651 68 198 1.0 5.0 0.00 0.08 0.01 59 1000.6
20260505081249 67 68 1.0 5.0 0.00 0.08 0.01 61 1000.5
20260505080841 66 252 0.0 3.0 0.00 0.08 0.01 62 1000.6
20260505080436 66 244 0.0 2.0 0.00 0.08 0.01 63 1000.5
20260505080033 66 252 0.0 5.0 0.00 0.08 0.01 63 1000.5
20260505075619 66 215 1.0 5.0 0.00 0.08 0.01 64 1000.5
20260505075222 66 219 1.0 5.0 0.00 0.08 0.01 64 1000.5
20260505074810 66 223 1.0 5.0 0.00 0.08 0.01 64 1000.5
20260505074405 66 177 1.0 5.0 0.00 0.08 0.01 63 1000.5
20260505074012 66 173 1.0 5.0 0.00 0.08 0.01 64 1000.6
20260505073602 66 160 1.0 5.0 0.00 0.08 0.01 64 1000.5
20260505073146 66 175 1.0 5.0 0.00 0.08 0.01 64 1000.5
20260505072749 66 127 1.0 6.0 0.00 0.08 0.01 64 1000.5
20260505072351 66 132 1.0 6.0 0.00 0.08 0.01 64 1000.4
20260505071428 66 140 2.0 6.0 0.00 0.08 0.01 64 1000.5
20260505071014 66 160 2.0 6.0 0.00 0.08 0.01 64 1000.5
20260505070615 66 139 2.0 6.0 0.00 0.08 0.01 65 1000.6
20260505070220 66 150 1.0 6.0 0.00 0.08 0.01 65 1000.6
20260505064718 65 134 2.0 6.0 0.00 0.08 0.01 65 1000.7
20260505064303 65 130 2.0 6.0 0.00 0.08 0.01 66 1000.8
20260505063901 65 136 2.0 6.0 0.00 0.08 0.01 66 1000.8
20260505063450 65 132 2.0 6.0 0.00 0.08 0.01 66 1000.8
20260505063048 66 76 2.0 6.0 0.00 0.08 0.01 66 1000.8
20260505062638 66 107 2.0 5.0 0.00 0.08 0.01 66 1000.9
20260505062228 66 155 2.0 6.0 0.00 0.08 0.01 65 1000.9
20260505061825 66 236 1.0 6.0 0.00 0.08 0.01 66 1000.9
20260505061409 66 119 2.0 11.0 0.00 0.08 0.01 65 1001.0
20260505061012 66 330 2.0 11.0 0.00 0.08 0.01 65 1001.0
20260505060604 66 132 2.0 11.0 0.00 0.08 0.01 65 1001.0
20260505060147 66 128 2.0 11.0 0.00 0.06 0.00 65 1001.2
20260505055749 66 217 2.0 11.0 0.00 0.06 0.00 64 1001.1
20260505055354 66 104 1.0 6.0 0.00 0.06 0.00 64 1001.3
20260505054958 66 214 1.0 6.0 0.00 0.06 0.00 65 1001.4
20260505054600 66 129 1.0 6.0 0.00 0.06 0.00 64 1001.3
20260505054153 66 126 1.0 6.0 0.00 0.06 0.00 65 1001.5
20260505053739 66 117 2.0 6.0 0.00 0.06 0.00 65 1001.6
20260505053345 66 155 1.0 6.0 0.00 0.06 0.00 64 1001.8
20260505052929 67 150 2.0 5.0 0.00 0.06 0.00 62 1001.7
20260505052516 67 155 2.0 5.0 0.00 0.06 0.00 61 1001.8
20260505052111 67 144 2.0 5.0 0.00 0.06 0.00 61 1001.7
20260505051657 67 152 1.0 5.0 0.00 0.06 0.00 62 1001.7
20260505051244 67 225 1.0 5.0 0.00 0.06 0.00 61 1001.8
20260505050833 67 217 1.0 5.0 0.00 0.06 0.00 61 1001.8
20260505050419 67 136 1.0 5.0 0.00 0.06 0.00 61 1001.8
20260505040623 63 159 0.0 2.0 0.00 0.06 0.00 69 1002.4
20260505040209 62 126 0.0 2.0 0.00 0.06 0.00 71 1002.3
20260505035811 62 157 0.0 2.0 0.00 0.06 0.06 71 1002.6
20260505035401 62 157 0.0 2.0 0.00 0.06 0.06 72 1002.7
20260505035003 62 109 0.0 2.0 0.00 0.06 0.06 71 1002.7
20260505034558 62 125 0.0 1.0 0.00 0.06 0.06 71 1002.9
20260505034202 62 124 0.0 0.0 0.00 0.06 0.06 70 1002.8
20260505033751 63 192 0.0 6.0 0.00 0.06 0.06 68 1002.9
20260505033341 63 90 0.0 6.0 0.00 0.06 0.06 67 1002.9
20260505032411 64 265 2.0 6.0 0.00 0.06 0.06 64 1003.0
20260505032001 66 63 2.0 5.0 0.00 0.06 0.06 60 1002.9
20260505031607 68 217 1.0 5.0 0.00 0.06 0.06 59 1002.9
20260505030646 68 226 1.0 10.0 0.00 0.06 0.06 61 1002.2
20260505025202 68 242 1.0 9.0 0.00 0.06 0.06 58 1001.9
20260505024752 69 223 1.0 9.0 0.00 0.06 0.06 58 1002.0
20260505023812 69 173 2.0 9.0 0.00 0.06 0.06 57 1002.0
20260505023406 69 165 2.0 9.0 0.00 0.06 0.06 57 1002.0
20260505023000 69 133 2.0 9.0 0.00 0.06 0.06 57 1001.8
20260505022555 69 178 2.0 9.0 0.00 0.06 0.06 57 1001.8
20260505022149 69 157 2.0 9.0 0.00 0.06 0.06 57 1001.9
20260505021740 69 132 1.0 6.0 0.00 0.06 0.06 57 1001.9
20260505021333 69 244 1.0 4.0 0.00 0.06 0.06 58 1002.0
20260505020402 69 149 2.0 8.0 0.00 0.06 0.06 58 1002.0
20260505015948 69 119 1.0 8.0 0.00 0.06 0.06 59 1002.0
20260505015012 68 254 1.0 6.0 0.00 0.06 0.06 61 1002.0